Location: Byszew
(52.1813°N, 19.2693°E)
Time: 21:45:44
(UTC+00:00)

Cosmos 1777 Rocket - Pass Details

Date: 03 March 2021
Orbit: 759 x 775 km, 74.0° (Epoch: 15 April)

Event Time Altitude Azimuth Distance (km) Brightness Sun altitude
Rises 18:27:00 0° 333° (NNW) 3,252 7.9 -19.2°
Reaches altitude 10° 18:29:24 10° 332° (NNW) 2,319 7.1 -19.5°
Maximum altitude 18:34:39 76° 248° (WSW) 794 4.1 -20.3°
Enters shadow 18:38:02 22° 166° (SSE) 1,614 5.4 -20.8°
